Location: Bieg
(49.3499°N, 10.3835°E)
Time: 22:43:26
(UTC+00:00)

Cosmos 1741 Rocket - Pass Details

Date: 23 May 2024
Orbit: 758 x 781 km, 74.0° (Epoch: 25 June)

Event Time Altitude Azimuth Distance (km) Brightness Sun altitude
Exits shadow 01:51:25 16° 219° (SW) 1,887 5.4 -11.9°
Maximum altitude 01:55:29 61° 297° (WNW) 868 4.2 -11.5°
Drops below altitude 10° 02:00:42 10° 18° (NNE) 2,325 7.7 -10.9°
Sets 02:03:08 0° 22° (NNE) 3,259 8.9 -10.7°
